| time (UTC) | temp C | wind direction | speed KPH | gust KPH | rain 1hr cm | rain 24hr cm | rain mn cm | humidity % | barometer mb |
| 20260504050514 | 2 | 0 | 0.0 | 0.0 | 0.00 | 0.00 | 0.00 | 79 | 1014.9 |
| 20260504050014 | 2 | 0 | 0.0 | 0.0 | 0.00 | 0.00 | 0.00 | 79 | 1014.9 |
| 20260504045511 | 2 | 0 | 0.0 | 0.0 | 0.00 | 0.00 | 0.00 | 77 | 1014.9 |
| 20260504045013 | 2 | 0 | 0.0 | 0.0 | 0.00 | 0.00 | 0.00 | 77 | 1014.9 |
| 20260504044511 | 2 | 0 | 0.0 | 0.0 | 0.00 | 0.00 | 0.00 | 77 | 1014.9 |
| 20260504044011 | 3 | 0 | 0.0 | 0.0 | 0.00 | 0.00 | 0.00 | 77 | 1014.9 |
| 20260504043511 | 3 | 0 | 0.0 | 0.0 | 0.00 | 0.00 | 0.00 | 75 | 1014.9 |
| 20260504043012 | 3 | 202 | 0.0 | 3.2 | 0.00 | 0.00 | 0.00 | 75 | 1014.9 |
| 20260504042511 | 3 | 0 | 0.0 | 0.0 | 0.00 | 0.00 | 0.00 | 74 | 1014.9 |
| 20260504042012 | 3 | 0 | 0.0 | 0.0 | 0.00 | 0.00 | 0.00 | 75 | 1015.0 |
| 20260504041511 | 3 | 0 | 0.0 | 0.0 | 0.00 | 0.00 | 0.00 | 74 | 1015.0 |
| 20260504041012 | 3 | 0 | 0.0 | 0.0 | 0.00 | 0.00 | 0.00 | 72 | 1015.0 |
| 20260504040512 | 3 | 0 | 0.0 | 0.0 | 0.00 | 0.00 | 0.00 | 73 | 1014.9 |
| 20260504040012 | 3 | 0 | 0.0 | 0.0 | 0.00 | 0.00 | 0.00 | 73 | 1014.9 |
| 20260504035512 | 4 | 0 | 0.0 | 0.0 | 0.00 | 0.00 | 0.00 | 71 | 1014.9 |
| 20260504035014 | 4 | 0 | 0.0 | 0.0 | 0.00 | 0.00 | 0.00 | 71 | 1014.9 |
| 20260504034512 | 4 | 336 | 0.0 | 0.0 | 0.00 | 0.00 | 0.00 | 71 | 1014.9 |
| 20260504034013 | 4 | 0 | 0.0 | 0.0 | 0.00 | 0.00 | 0.00 | 72 | 1014.9 |
| 20260504033512 | 5 | 0 | 0.0 | 0.0 | 0.00 | 0.00 | 0.00 | 72 | 1014.9 |
| 20260504033012 | 5 | 0 | 0.0 | 0.0 | 0.00 | 0.00 | 0.00 | 71 | 1014.8 |
| 20260504032511 | 5 | 0 | 0.0 | 0.0 | 0.00 | 0.00 | 0.00 | 70 | 1014.8 |
| 20260504032012 | 5 | 0 | 0.0 | 0.0 | 0.00 | 0.00 | 0.00 | 68 | 1014.8 |
| 20260504031511 | 5 | 0 | 0.0 | 0.0 | 0.00 | 0.00 | 0.00 | 66 | 1014.9 |
| 20260504031012 | 6 | 0 | 0.0 | 0.0 | 0.00 | 0.00 | 0.00 | 68 | 1014.9 |
| 20260504030512 | 6 | 0 | 0.0 | 0.0 | 0.00 | 0.00 | 0.00 | 66 | 1014.9 |
| 20260504030014 | 6 | 0 | 0.0 | 0.0 | 0.00 | 0.00 | 0.00 | 64 | 1015.0 |
| 20260504025511 | 7 | 0 | 0.0 | 0.0 | 0.00 | 0.00 | 0.00 | 61 | 1015.0 |
| 20260504025012 | 7 | 0 | 0.0 | 0.0 | 0.00 | 0.00 | 0.00 | 62 | 1014.9 |
| 20260504024512 | 7 | 359 | 0.0 | 0.0 | 0.00 | 0.00 | 0.00 | 61 | 1014.9 |
| 20260504024012 | 7 | 8 | 0.0 | 1.6 | 0.00 | 0.00 | 0.00 | 59 | 1014.9 |
| 20260504023512 | 7 | 248 | 0.0 | 0.0 | 0.00 | 0.00 | 0.00 | 57 | 1014.8 |
| 20260504023012 | 7 | 0 | 0.0 | 0.0 | 0.00 | 0.00 | 0.00 | 57 | 1014.8 |
| 20260504022513 | 7 | 0 | 0.0 | 0.0 | 0.00 | 0.00 | 0.00 | 57 | 1014.8 |
| 20260504022013 | 7 | 304 | 0.0 | 4.8 | 0.00 | 0.00 | 0.00 | 57 | 1014.8 |
| 20260504021512 | 7 | 303 | 0.0 | 4.8 | 0.00 | 0.00 | 0.00 | 61 | 1014.8 |
| 20260504021012 | 7 | 341 | 0.0 | 1.6 | 0.00 | 0.00 | 0.00 | 61 | 1014.7 |
| 20260504020511 | 7 | 315 | 0.0 | 3.2 | 0.00 | 0.00 | 0.00 | 61 | 1014.6 |
| 20260504020012 | 7 | 0 | 0.0 | 0.0 | 0.00 | 0.00 | 0.00 | 63 | 1014.6 |
| 20260504015511 | 7 | 0 | 0.0 | 0.0 | 0.00 | 0.00 | 0.00 | 59 | 1014.5 |
| 20260504015012 | 7 | 334 | 1.6 | 6.4 | 0.00 | 0.00 | 0.00 | 61 | 1014.5 |
| 20260504014511 | 7 | 0 | 0.0 | 0.0 | 0.00 | 0.00 | 0.00 | 62 | 1014.5 |
| 20260504014011 | 7 | 313 | 1.6 | 4.8 | 0.00 | 0.00 | 0.00 | 61 | 1014.5 |
| 20260504013512 | 7 | 0 | 0.0 | 0.0 | 0.00 | 0.00 | 0.00 | 63 | 1014.4 |
| 20260504013012 | 7 | 326 | 3.2 | 6.4 | 0.00 | 0.00 | 0.00 | 60 | 1014.4 |
| 20260504012512 | 7 | 355 | 0.0 | 6.4 | 0.00 | 0.00 | 0.00 | 59 | 1014.4 |
| 20260504012012 | 8 | 9 | 1.6 | 6.4 | 0.00 | 0.00 | 0.00 | 59 | 1014.3 |
| 20260504011512 | 8 | 0 | 0.0 | 0.0 | 0.00 | 0.00 | 0.00 | 58 | 1014.3 |
| 20260504011012 | 8 | 0 | 0.0 | 0.0 | 0.00 | 0.00 | 0.00 | 58 | 1014.3 |
| 20260504010512 | 8 | 0 | 0.0 | 0.0 | 0.00 | 0.00 | 0.00 | 54 | 1014.3 |
| 20260504010012 | 9 | 0 | 0.0 | 0.0 | 0.00 | 0.00 | 0.00 | 55 | 1014.3 |
| 20260504005511 | 9 | 0 | 0.0 | 0.0 | 0.00 | 0.00 | 0.00 | 53 | 1014.2 |
| 20260504005011 | 9 | 0 | 0.0 | 0.0 | 0.00 | 0.00 | 0.00 | 54 | 1014.2 |
| 20260504004512 | 10 | 343 | 0.0 | 1.6 | 0.00 | 0.00 | 0.00 | 50 | 1014.1 |
| 20260504004012 | 10 | 4 | 0.0 | 3.2 | 0.00 | 0.00 | 0.00 | 50 | 1014.1 |
| 20260504003511 | 10 | 50 | 0.0 | 3.2 | 0.00 | 0.00 | 0.00 | 52 | 1014.1 |
| 20260504003012 | 10 | 132 | 0.0 | 3.2 | 0.00 | 0.00 | 0.00 | 52 | 1014.1 |
| 20260504002511 | 11 | 0 | 0.0 | 0.0 | 0.00 | 0.00 | 0.00 | 51 | 1014.1 |
| 20260504002012 | 11 | 334 | 1.6 | 4.8 | 0.00 | 0.00 | 0.00 | 47 | 1014.0 |
| 20260504001511 | 11 | 329 | 0.0 | 1.6 | 0.00 | 0.00 | 0.00 | 51 | 1014.0 |
| 20260504001012 | 11 | 321 | 0.0 | 3.2 | 0.00 | 0.00 | 0.00 | 48 | 1014.0 |
| 20260504000511 | 11 | 300 | 0.0 | 1.6 | 0.00 | 0.00 | 0.00 | 47 | 1014.0 |
| 20260504000012 | 12 | 0 | 0.0 | 0.0 | 0.00 | 0.00 | 0.00 | 47 | 1013.9 |
| 20260503235512 | 12 | 334 | 0.0 | 1.6 | 0.00 | 0.00 | 0.00 | 46 | 1013.9 |
| 20260503235012 | 13 | 279 | 1.6 | 4.8 | 0.00 | 0.00 | 0.00 | 46 | 1014.0 |
| 20260503234512 | 13 | 0 | 0.0 | 0.0 | 0.00 | 0.00 | 0.00 | 43 | 1013.9 |
| 20260503234011 | 14 | 14 | 1.6 | 3.2 | 0.00 | 0.00 | 0.00 | 38 | 1013.8 |
| 20260503233512 | 14 | 288 | 1.6 | 4.8 | 0.00 | 0.00 | 0.00 | 37 | 1013.9 |
| 20260503233011 | 14 | 351 | 3.2 | 4.8 | 0.00 | 0.00 | 0.00 | 35 | 1013.9 |
| 20260503232511 | 15 | 339 | 6.4 | 12.9 | 0.00 | 0.00 | 0.00 | 37 | 1013.9 |
| 20260503232011 | 15 | 330 | 6.4 | 8.0 | 0.00 | 0.00 | 0.00 | 35 | 1013.7 |
| 20260503231512 | 15 | 333 | 6.4 | 9.7 | 0.00 | 0.00 | 0.00 | 35 | 1013.7 |
| 20260503231011 | 15 | 247 | 4.8 | 8.0 | 0.00 | 0.00 | 0.00 | 35 | 1013.6 |
| 20260503230512 | 15 | 317 | 4.8 | 8.0 | 0.00 | 0.00 | 0.00 | 34 | 1013.7 |
| 20260503230011 | 16 | 326 | 3.2 | 8.0 | 0.00 | 0.00 | 0.00 | 33 | 1013.7 |
| 20260503225513 | 16 | 283 | 3.2 | 4.8 | 0.00 | 0.00 | 0.00 | 34 | 1013.7 |
| 20260503225011 | 16 | 289 | 3.2 | 6.4 | 0.00 | 0.00 | 0.00 | 34 | 1013.6 |
| 20260503224511 | 16 | 301 | 1.6 | 4.8 | 0.00 | 0.00 | 0.00 | 33 | 1013.6 |
| 20260503224012 | 16 | 315 | 3.2 | 6.4 | 0.00 | 0.00 | 0.00 | 33 | 1013.5 |
| 20260503223511 | 17 | 275 | 6.4 | 9.7 | 0.00 | 0.00 | 0.00 | 32 | 1013.5 |
| 20260503223012 | 17 | 287 | 4.8 | 6.4 | 0.00 | 0.00 | 0.00 | 33 | 1013.6 |
| 20260503222511 | 17 | 280 | 3.2 | 6.4 | 0.00 | 0.00 | 0.00 | 33 | 1013.6 |
| 20260503222012 | 17 | 248 | 9.7 | 14.5 | 0.00 | 0.00 | 0.00 | 34 | 1013.6 |
| 20260503221512 | 17 | 267 | 6.4 | 9.7 | 0.00 | 0.00 | 0.00 | 32 | 1013.7 |
| 20260503221011 | 17 | 347 | 4.8 | 9.7 | 0.00 | 0.00 | 0.00 | 32 | 1013.7 |
| 20260503220511 | 17 | 320 | 4.8 | 8.0 | 0.00 | 0.00 | 0.00 | 31 | 1013.7 |
| 20260503220015 | 17 | 309 | 6.4 | 9.7 | 0.00 | 0.00 | 0.00 | 32 | 1013.8 |
| 20260503215513 | 17 | 294 | 3.2 | 8.0 | 0.00 | 0.00 | 0.00 | 33 | 1013.7 |
| 20260503215011 | 17 | 316 | 6.4 | 16.1 | 0.00 | 0.00 | 0.00 | 32 | 1013.8 |
| 20260503214511 | 17 | 343 | 4.8 | 11.3 | 0.00 | 0.00 | 0.00 | 32 | 1013.8 |
| 20260503214011 | 17 | 299 | 4.8 | 6.4 | 0.00 | 0.00 | 0.00 | 32 | 1013.8 |
| 20260503213511 | 17 | 292 | 6.4 | 12.9 | 0.00 | 0.00 | 0.00 | 32 | 1013.7 |
| 20260503213011 | 17 | 283 | 9.7 | 14.5 | 0.00 | 0.00 | 0.00 | 32 | 1013.9 |
| 20260503212512 | 17 | 264 | 9.7 | 16.1 | 0.00 | 0.00 | 0.00 | 33 | 1013.6 |
| 20260503212012 | 17 | 304 | 6.4 | 9.7 | 0.00 | 0.00 | 0.00 | 34 | 1013.8 |
| 20260503211023 | 17 | 263 | 11.3 | 17.7 | 0.00 | 0.00 | 0.00 | 34 | 1013.9 |
| 20260503210512 | 17 | 275 | 9.7 | 12.9 | 0.00 | 0.00 | 0.00 | 34 | 1013.9 |
| 20260503210012 | 17 | 317 | 4.8 | 11.3 | 0.00 | 0.00 | 0.00 | 32 | 1013.8 |
| 20260503205512 | 17 | 285 | 6.4 | 14.5 | 0.00 | 0.00 | 0.00 | 33 | 1013.9 |
| 20260503205012 | 17 | 312 | 4.8 | 11.3 | 0.00 | 0.00 | 0.00 | 33 | 1013.9 |
| 20260503204511 | 16 | 299 | 9.7 | 17.7 | 0.00 | 0.00 | 0.00 | 32 | 1014.0 |
| 20260503204012 | 16 | 252 | 9.7 | 14.5 | 0.00 | 0.00 | 0.00 | 33 | 1013.8 |
| 20260503203511 | 16 | 295 | 9.7 | 14.5 | 0.00 | 0.00 | 0.00 | 34 | 1013.9 |
| 20260503203012 | 16 | 353 | 3.2 | 6.4 | 0.00 | 0.00 | 0.00 | 34 | 1013.8 |
| 20260503202511 | 17 | 311 | 8.0 | 12.9 | 0.00 | 0.00 | 0.00 | 33 | 1014.0 |
| 20260503202012 | 17 | 308 | 6.4 | 9.7 | 0.00 | 0.00 | 0.00 | 33 | 1014.1 |
| 20260503201512 | 18 | 256 | 12.9 | 24.1 | 0.00 | 0.00 | 0.00 | 33 | 1014.0 |
| 20260503201012 | 17 | 293 | 3.2 | 6.4 | 0.00 | 0.00 | 0.00 | 34 | 1014.1 |
| 20260503200511 | 17 | 278 | 8.0 | 14.5 | 0.00 | 0.00 | 0.00 | 33 | 1014.2 |
| 20260503200013 | 17 | 342 | 9.7 | 16.1 | 0.00 | 0.00 | 0.00 | 32 | 1014.2 |
| 20260503195513 | 18 | 301 | 11.3 | 17.7 | 0.00 | 0.00 | 0.00 | 31 | 1014.3 |
| 20260503195011 | 17 | 291 | 4.8 | 8.0 | 0.00 | 0.00 | 0.00 | 34 | 1014.2 |
| 20260503194511 | 17 | 291 | 6.4 | 14.5 | 0.00 | 0.00 | 0.00 | 34 | 1014.4 |
| 20260503194011 | 17 | 348 | 3.2 | 9.7 | 0.00 | 0.00 | 0.00 | 33 | 1014.4 |
| 20260503193511 | 17 | 330 | 3.2 | 6.4 | 0.00 | 0.00 | 0.00 | 33 | 1014.6 |
| 20260503193011 | 17 | 312 | 6.4 | 14.5 | 0.00 | 0.00 | 0.00 | 32 | 1014.7 |
| 20260503192513 | 17 | 271 | 4.8 | 9.7 | 0.00 | 0.00 | 0.00 | 34 | 1014.5 |
| 20260503192012 | 17 | 303 | 8.0 | 11.3 | 0.00 | 0.00 | 0.00 | 32 | 1014.6 |
| 20260503191513 | 17 | 322 | 9.7 | 14.5 | 0.00 | 0.00 | 0.00 | 32 | 1014.6 |
| 20260503190523 | 17 | 318 | 4.8 | 12.9 | 0.00 | 0.00 | 0.00 | 33 | 1014.7 |
| 20260503190013 | 17 | 74 | 6.4 | 19.3 | 0.00 | 0.00 | 0.00 | 32 | 1014.8 |
| 20260503185512 | 16 | 302 | 4.8 | 9.7 | 0.00 | 0.00 | 0.00 | 37 | 1014.9 |
| 20260503185012 | 16 | 286 | 12.9 | 17.7 | 0.00 | 0.00 | 0.00 | 35 | 1015.0 |
| 20260503184511 | 16 | 311 | 6.4 | 11.3 | 0.00 | 0.00 | 0.00 | 34 | 1015.0 |
| 20260503184012 | 17 | 344 | 4.8 | 11.3 | 0.00 | 0.00 | 0.00 | 32 | 1015.1 |
| 20260503183511 | 17 | 319 | 9.7 | 19.3 | 0.00 | 0.00 | 0.00 | 33 | 1015.1 |
| 20260503183013 | 17 | 314 | 6.4 | 9.7 | 0.00 | 0.00 | 0.00 | 33 | 1015.0 |
| 20260503182511 | 16 | 293 | 6.4 | 11.3 | 0.00 | 0.00 | 0.00 | 34 | 1015.0 |
| 20260503182012 | 16 | 18 | 4.8 | 8.0 | 0.00 | 0.00 | 0.00 | 33 | 1015.1 |
| 20260503181512 | 16 | 306 | 6.4 | 11.3 | 0.00 | 0.00 | 0.00 | 34 | 1015.2 |
| 20260503181012 | 15 | 322 | 6.4 | 9.7 | 0.00 | 0.00 | 0.00 | 35 | 1015.2 |
| 20260503180511 | 16 | 337 | 8.0 | 11.3 | 0.00 | 0.00 | 0.00 | 32 | 1015.3 |
| 20260503180012 | 16 | 320 | 4.8 | 9.7 | 0.00 | 0.00 | 0.00 | 34 | 1015.3 |
| 20260503175513 | 16 | 324 | 3.2 | 6.4 | 0.00 | 0.00 | 0.00 | 33 | 1015.3 |
| 20260503175011 | 16 | 21 | 6.4 | 17.7 | 0.00 | 0.00 | 0.00 | 35 | 1015.3 |
| 20260503174513 | 16 | 268 | 4.8 | 8.0 | 0.00 | 0.00 | 0.00 | 31 | 1015.6 |
| 20260503174012 | 16 | 337 | 6.4 | 9.7 | 0.00 | 0.00 | 0.00 | 33 | 1015.6 |
| 20260503173511 | 15 | 321 | 4.8 | 9.7 | 0.00 | 0.00 | 0.00 | 34 | 1015.5 |
| 20260503173011 | 15 | 280 | 11.3 | 19.3 | 0.00 | 0.00 | 0.00 | 35 | 1015.5 |
| 20260503172513 | 15 | 329 | 9.7 | 17.7 | 0.00 | 0.00 | 0.00 | 33 | 1015.6 |
| 20260503172013 | 15 | 317 | 4.8 | 9.7 | 0.00 | 0.00 | 0.00 | 34 | 1015.6 |
| 20260503171511 | 15 | 293 | 6.4 | 12.9 | 0.00 | 0.00 | 0.00 | 35 | 1015.6 |
| 20260503171011 | 15 | 287 | 4.8 | 6.4 | 0.00 | 0.00 | 0.00 | 38 | 1015.7 |
| 20260503170512 | 15 | 318 | 4.8 | 9.7 | 0.00 | 0.00 | 0.00 | 33 | 1015.6 |
| 20260503151014 | 11 | 13 | 6.4 | 14.5 | 0.00 | 0.00 | 0.00 | 42 | 1017.0 |
| 20260503150514 | 11 | 324 | 8.0 | 16.1 | 0.00 | 0.00 | 0.00 | 41 | 1017.0 |
| 20260503131013 | 8 | 341 | 8.0 | 16.1 | 0.00 | 0.00 | 0.00 | 52 | 1017.3 |
| 20260503130512 | 8 | 317 | 6.4 | 9.7 | 0.00 | 0.00 | 0.00 | 54 | 1017.3 |
| 20260503110511 | 2 | 300 | 3.2 | 6.4 | 0.00 | 0.00 | 0.00 | 69 | 1016.7 |
| 20260503090512 | 3 | 315 | 4.8 | 6.4 | 0.00 | 0.00 | 0.00 | 66 | 1015.7 |
| 20260503081511 | 3 | 299 | 3.2 | 6.4 | 0.00 | 0.00 | 0.00 | 66 | 1015.5 |
| 20260503081012 | 3 | 322 | 3.2 | 6.4 | 0.00 | 0.00 | 0.00 | 67 | 1015.5 |
| 20260503080511 | 3 | 297 | 1.6 | 4.8 | 0.00 | 0.00 | 0.00 | 69 | 1015.5 |
| 20260503072513 | 4 | 327 | 3.2 | 6.4 | 0.00 | 0.00 | 0.00 | 65 | 1015.1 |
| 20260503072012 | 4 | 352 | 3.2 | 8.0 | 0.00 | 0.00 | 0.00 | 64 | 1015.0 |
| 20260503071512 | 4 | 328 | 4.8 | 6.4 | 0.00 | 0.00 | 0.00 | 67 | 1015.0 |
| 20260503071011 | 4 | 311 | 0.0 | 3.2 | 0.00 | 0.00 | 0.00 | 65 | 1015.0 |
| 20260503070513 | 4 | 309 | 3.2 | 6.4 | 0.00 | 0.00 | 0.00 | 65 | 1014.9 |
| 20260503055011 | 5 | 287 | 3.2 | 4.8 | 0.00 | 0.00 | 0.00 | 66 | 1014.9 |
| 20260503054512 | 5 | 0 | 0.0 | 0.0 | 0.00 | 0.00 | 0.00 | 67 | 1015.0 |
| 20260503054014 | 5 | 280 | 3.2 | 3.2 | 0.00 | 0.00 | 0.00 | 65 | 1015.0 |